User: anonymous
Location: Unspecified
(42.1900°N, 71.3291°W)
Time: 06:21:53
(UTC-04:00)
Language:

Resurs 1-4 Rocket - Orbit

View from above orbital plane
View from above orbital plane
View from above satellite
View from above satellite

Ground track
Ground track

The orbit data is extracted from the following two-line orbital elements,

1 25400U 98043G   14292.81733683  .00000064  00000-0  44756-4 0  7877
2 25400 098.3506 263.6973 0008761 259.6905 100.3288 14.25264190846697
Epoch (UTC): 19 October 2014 19:36:57
Eccentricity: 0.0008761
inclination: 98.3506°
perigee height: 801 km
apogee height: 814 km
right ascension of ascending node: 263.6973°
argument of perigee: 259.6905°
revolutions per day: 14.25264190
mean anomaly at epoch: 100.3288°
orbit number at epoch: 84669

The dashed part of the orbit path shows where the satellite is in the earth's shadow,  

DLR